[[{"header":{"parameterUnit":"m.s-1","parameterCategory":1,"la1":30.2991,"la2":30.254,"lo1":-89.0895,"lo2":-89.0444,"dy":0.0017,"dx":0.0017,"nx":28,"ny":28,"refTime":"2024-08-14T21:00:00:Z","depth":0,"parameterNumber":2,"parameterNumberName":"U-component_of_WINDS"},"data":[0,0,0,0,0,0,0,0,0,0,0,0,0,0,0,0,0,0,0,0,0,0,0,0,0,0,0,0,0,0,0,0,0,0,0,0,0,0,0,0,0,0,0,0,0,0,0,0,0,0,0,0,0,0,0,0,0,0,-0.4413,-0.4412,0,-0.4354,-0.4353,-0.4353,-0.4359,-0.436,-0.4361,-0.4362,-0.4294,-0.4292,-0.4289,0,0,0,0,0,0,0,0,0,0,0,0,0,-0.4525,-0.4523,-0.4413,-0.4412,-0.4412,-0.4354,-0.4353,-0.4353,-0.4359,-0.436,-0.4361,-0.4362,-0.4295,-0.4292,-0.4289,0,0,0,0,0,0,0,0,0,0,0,0,0,-0.4472,-0.4522,-0.4413,-0.4408,-0.4407,-0.4354,-0.4353,-0.4352,-0.4358,-0.436,-0.4361,-0.4363,-0.4296,-0.4292,-0.4288,-0.4235,0,0,-0.4276,-0.4274,0,0,0,0,0,0,0,0,-0.4475,-0.4468,-0.4409,-0.4408,-0.4407,-0.4366,-0.4368,-0.4313,-0.4358,-0.4377,-0.4362,-0.4363,-0.4316,-0.4311,-0.4296,-0.4232,-0.4229,-0.4276,-0.4273,-0.4271,-0.427,0,0,0,0,0,0,0,-0.4479,-0.447,-0.439,-0.4409,-0.4407,-0.4407,-0.4401,-0.4358,-0.4339,-0.4375,-0.4375,-0.4369,-0.4316,-0.43,-0.4295,-0.4228,-0.4276,-0.4272,-0.427,-0.4268,-0.4117,-0.4115,0,0,0,0,0,0,-0.4485,-0.4474,-0.4391,-0.4388,-0.4445,-0.4403,-0.4397,-0.4377,-0.434,-0.4335,-0.4368,-0.4369,-0.4306,-0.4299,-0.4292,-0.4227,-0.4272,-0.4268,-0.4265,-0.4118,-0.4116,-0.4115,0,0,0,0,0,0,-0.4487,-0.4477,-0.4394,-0.4431,-0.442,-0.44,-0.4378,-0.4375,-0.436,-0.4334,-0.433,-0.4355,-0.4307,-0.4298,-0.425,-0.4225,-0.4266,-0.4262,-0.412,-0.4118,-0.4115,-0.4096,0,0,0,0,0,0,-0.449,-0.4478,-0.4459,-0.443,-0.4418,-0.4354,-0.4377,-0.4373,-0.4354,-0.4355,-0.4321,-0.4317,-0.4308,-0.4256,-0.4246,-0.422,-0.4259,-0.4122,-0.4119,-0.4116,-0.4099,-0.4094,-0.4089,0,0,0,0,0,-0.4494,-0.4454,-0.4458,-0.4448,-0.4394,-0.4352,-0.4345,-0.4337,-0.4352,-0.4331,-0.4315,-0.4318,-0.423,-0.4251,-0.424,-0.4212,-0.4124,-0.412,-0.4116,-0.4101,-0.4095,-0.4089,0,0,0,0,0,0,-0.4478,-0.445,-0.4454,-0.4404,-0.4381,-0.4354,-0.4327,-0.433,-0.43,-0.4303,-0.4292,-0.4284,-0.4235,-0.4219,-0.4243,-0.4159,-0.4178,-0.4172,-0.4171,-0.4164,-0.4159,-0.4163,-0.4256,0,0,0,0,0,-0.4469,-0.4439,-0.4416,-0.4374,-0.4363,-0.4347,-0.4329,-0.4325,-0.4299,-0.4288,-0.4268,-0.4242,-0.4208,-0.4185,-0.4153,-0.4098,-0.409,-0.4073,-0.4068,-0.4064,-0.4058,-0.4027,-0.402,-0.4103,-0.4103,-0.4103,0,0,-0.4449,-0.443,-0.4412,-0.4371,-0.4352,-0.432,-0.4339,-0.4303,-0.4279,-0.4282,-0.4236,-0.4221,-0.419,-0.4138,-0.4114,-0.4123,-0.4034,-0.406,-0.4057,-0.4053,-0.4023,-0.4015,-0.4008,-0.41,-0.4101,-0.4101,0,0,-0.4396,-0.438,-0.4343,-0.4325,-0.4298,-0.4288,-0.4279,-0.4252,-0.4242,-0.4196,-0.4198,-0.4168,-0.411,-0.4088,-0.4069,-0.401,-0.4012,-0.4,-0.3972,-0.3942,-0.3936,-0.393,-0.3907,-0.3899,-0.3995,-0.3994,-0.3994,0,-0.4374,-0.4327,-0.4323,-0.4288,-0.4269,-0.4275,-0.4236,-0.4218,-0.418,-0.4166,-0.4178,-0.4106,-0.4086,-0.4028,-0.4014,-0.3999,-0.3987,-0.4002,-0.3937,-0.3931,-0.3926,-0.3904,-0.3896,-0.3993,-0.3993,-0.3993,-0.3994,0,-0.4301,-0.4268,-0.4242,-0.4208,-0.4187,-0.415,-0.4139,-0.4117,-0.4116,-0.4104,-0.4057,-0.4033,-0.3996,-0.3983,-0.398,-0.3925,-0.3931,-0.394,-0.3959,-0.3917,-0.3896,-0.3888,-0.3991,-0.3992,-0.3992,-0.3992,0,0,-0.4233,-0.42,-0.419,-0.4175,-0.4146,-0.412,-0.4083,-0.4049,-0.403,-0.4005,-0.3972,-0.3925,-0.3933,-0.3912,-0.3907,-0.3881,-0.3834,-0.3893,-0.3892,-0.3881,-0.3771,-0.3763,-0.3754,-0.3836,-0.3835,-0.3833,-0.3773,0,-0.4176,-0.4114,-0.411,-0.4052,-0.4022,-0.4027,-0.3995,-0.3973,-0.3961,-0.3932,-0.3919,-0.3885,-0.39,-0.3887,-0.3862,-0.3845,-0.3811,-0.385,-0.3804,-0.3802,-0.3809,-0.3743,-0.3734,-0.3678,-0.3765,-0.3764,-0.3763,0,-0.4101,-0.4076,-0.4016,-0.3992,-0.3979,-0.395,-0.3919,-0.3892,-0.3867,-0.386,-0.3838,-0.3837,-0.3798,-0.382,-0.3765,-0.3791,-0.3773,-0.3762,-0.3759,-0.3753,-0.3778,-0.3733,-0.366,-0.3651,-0.375,-0.3751,-0.3752,0,-0.4056,-0.4007,-0.3965,-0.3952,-0.3923,-0.3903,-0.389,-0.3866,-0.3846,-0.3819,-0.3805,-0.3773,-0.3754,-0.3728,-0.3718,-0.3736,-0.3663,-0.3685,-0.3654,-0.3654,-0.3636,-0.3637,-0.3558,-0.3628,-0.3628,-0.3628,-0.3628,0,-0.3991,-0.3954,-0.3944,-0.3918,-0.3876,-0.3872,-0.383,-0.3817,-0.3797,-0.3767,-0.3769,-0.3741,-0.373,-0.3699,-0.3691,-0.3646,-0.3638,-0.363,-0.3628,-0.3629,-0.3629,-0.3614,-0.3617,-0.3626,-0.3626,-0.3627,-0.3627,0,-0.3932,-0.3925,-0.3879,-0.3857,-0.3851,-0.3821,-0.3801,-0.3774,-0.3765,-0.3727,-0.3718,-0.3702,-0.3666,-0.3654,-0.361,-0.3604,-0.3551,-0.3553,-0.356,-0.3559,-0.3529,-0.3532,-0.3436,-0.3422,-0.3503,-0.3502,-0.3501,0,-0.3891,-0.3863,-0.3838,-0.382,-0.3807,-0.3776,-0.3757,-0.3752,-0.3731,-0.3701,-0.3678,-0.3644,-0.3615,-0.3557,-0.354,-0.3507,-0.3507,-0.3476,-0.3501,-0.3503,-0.3504,-0.3505,-0.3502,-0.347,-0.3469,-0.3468,-0.3468,0,-0.3817,-0.3815,-0.3788,-0.376,-0.3738,-0.3714,-0.3692,-0.3676,-0.3667,-0.3644,-0.3609,-0.3587,-0.3544,-0.3508,-0.3474,-0.3459,-0.3461,-0.346,-0.3451,-0.3451,-0.3455,-0.3451,-0.3545,-0.3462,-0.3462,-0.3463,-0.3463,-0.3463,-0.3764,-0.374,-0.3719,-0.3689,-0.3672,-0.3652,-0.3627,-0.3615,-0.3586,-0.3552,-0.3551,-0.3512,-0.3488,-0.3443,-0.3426,-0.3394,-0.3403,-0.339,-0.3386,-0.3383,-0.338,-0.3463,-0.3388,-0.3388,-0.3389,-0.3389,-0.3389,0,-0.369,-0.3677,-0.365,-0.362,-0.3596,-0.3604,-0.358,-0.3559,-0.3526,-0.3504,-0.3477,-0.3436,-0.3403,-0.3384,-0.335,-0.3329,-0.3329,-0.332,-0.332,-0.3316,-0.3375,-0.3385,-0.332,-0.332,-0.332,-0.332,-0.332,-0.332,-0.3648,-0.3606,-0.3602,-0.3552,-0.354,-0.3504,-0.3489,-0.347,-0.3453,-0.3408,-0.3381,-0.3371,-0.335,-0.3315,-0.3284,-0.3279,-0.3265,-0.3255,-0.3251,-0.3305,-0.3312,-0.3319,-0.3329,-0.3253,-0.3253,-0.3195,-0.3194,-0.3194]},{"header":{"parameterUnit":"m.s-1","parameterCategory":1,"la1":30.2991,"la2":30.254,"lo1":-89.0895,"lo2":-89.0444,"dy":0.0017,"dx":0.0017,"nx":28,"ny":28,"refTime":"2024-08-14T21:00:00:Z","depth":0,"parameterNumber":3,"parameterNumberName":"V-component_of_WINDS"},"data":[0,0,0,0,0,0,0,0,0,0,0,0,0,0,0,0,0,0,0,0,0,0,0,0,0,0,0,0,0,0,0,0,0,0,0,0,0,0,0,0,0,0,0,0,0,0,0,0,0,0,0,0,0,0,0,0,0,0,1.9191,1.9191,0,1.9252,1.9252,1.9253,1.9277,1.9277,1.9277,1.9277,1.9335,1.9336,1.9338,0,0,0,0,0,0,0,0,0,0,0,0,0,1.909,1.9092,1.9191,1.9192,1.9192,1.9252,1.9252,1.9253,1.9278,1.9277,1.9277,1.9277,1.9334,1.9336,1.9338,0,0,0,0,0,0,0,0,0,0,0,0,0,1.914,1.9092,1.9191,1.9212,1.9214,1.9251,1.9252,1.9254,1.9278,1.9277,1.9277,1.9277,1.9334,1.9336,1.9339,1.9358,0,0,1.9346,1.9347,0,0,0,0,0,0,0,0,1.9138,1.9144,1.9208,1.921,1.9213,1.9257,1.9238,1.9288,1.9278,1.9253,1.9277,1.9277,1.9309,1.9313,1.9325,1.9361,1.9363,1.9346,1.9348,1.9349,1.935,0,0,0,0,0,0,0,1.9134,1.9142,1.9215,1.9209,1.9212,1.9216,1.9223,1.9248,1.9281,1.9255,1.9257,1.9264,1.931,1.9323,1.9327,1.9364,1.9346,1.9348,1.935,1.9351,1.9417,1.9417,0,0,0,0,0,0,1.9128,1.9139,1.9213,1.9217,1.9174,1.9218,1.9226,1.9243,1.9281,1.9287,1.9265,1.9265,1.9318,1.9324,1.9329,1.9353,1.9349,1.9351,1.9353,1.9417,1.9417,1.9417,0,0,0,0,0,0,1.9126,1.9134,1.921,1.9178,1.9188,1.922,1.9239,1.9244,1.9257,1.9288,1.9294,1.9272,1.9318,1.9325,1.9351,1.9356,1.9352,1.9355,1.9416,1.9417,1.9417,1.9403,0,0,0,0,0,0,1.9123,1.9133,1.9142,1.9178,1.919,1.9233,1.9239,1.9246,1.9262,1.9263,1.9296,1.9301,1.9319,1.9347,1.9353,1.9359,1.9357,1.9416,1.9417,1.9417,1.9403,1.9403,1.9403,0,0,0,0,0,1.9119,1.9135,1.9143,1.9152,1.9202,1.9233,1.924,1.9261,1.9262,1.927,1.929,1.93,1.9354,1.9349,1.9356,1.9363,1.9416,1.9416,1.9417,1.9403,1.9403,1.9403,0,0,0,0,0,0,1.9098,1.914,1.9149,1.9178,1.9202,1.9237,1.9249,1.926,1.9283,1.9283,1.9307,1.9314,1.9337,1.9353,1.9346,1.9383,1.9386,1.9388,1.9373,1.9373,1.9372,1.9368,1.9359,0,0,0,0,0,1.9097,1.912,1.9155,1.9177,1.9189,1.9217,1.9231,1.9245,1.927,1.928,1.9302,1.9324,1.9346,1.936,1.9382,1.9405,1.9412,1.9414,1.9413,1.9413,1.9414,1.9427,1.9427,1.9419,1.9419,1.9419,0,0,1.9095,1.9121,1.9134,1.9174,1.9194,1.9216,1.9225,1.9248,1.9264,1.9283,1.9309,1.9325,1.9352,1.9376,1.9388,1.9389,1.9418,1.9414,1.9413,1.9415,1.9427,1.9428,1.9429,1.942,1.942,1.942,0,0,1.9102,1.9124,1.9145,1.9165,1.9196,1.9214,1.9219,1.9252,1.9264,1.9291,1.9305,1.9323,1.9361,1.9379,1.9393,1.9405,1.9415,1.9411,1.941,1.9422,1.9422,1.9423,1.9427,1.9428,1.9413,1.9413,1.9413,0,1.9095,1.913,1.9153,1.9176,1.9192,1.9211,1.9231,1.9249,1.9285,1.9295,1.9296,1.9343,1.9363,1.9391,1.9394,1.9405,1.941,1.9408,1.9421,1.9422,1.9423,1.9426,1.9428,1.9412,1.9412,1.9412,1.9412,0,1.9119,1.9143,1.9156,1.9191,1.9209,1.9229,1.9254,1.9269,1.9281,1.9298,1.9324,1.9347,1.9374,1.9382,1.9393,1.9411,1.9411,1.9416,1.9419,1.9422,1.9426,1.9428,1.9411,1.9411,1.9412,1.9412,0,0,1.9116,1.9164,1.9168,1.9183,1.9218,1.9236,1.9257,1.9284,1.9296,1.9319,1.9336,1.9367,1.9372,1.9388,1.9401,1.9411,1.9419,1.9415,1.9416,1.9415,1.9438,1.9434,1.9436,1.9425,1.9425,1.9426,1.9436,0,1.9127,1.9167,1.9188,1.9218,1.924,1.9258,1.9275,1.9297,1.9314,1.9333,1.935,1.9371,1.9377,1.9386,1.9397,1.9415,1.9424,1.9415,1.944,1.944,1.9433,1.9438,1.9434,1.9442,1.9438,1.9438,1.9438,0,1.9147,1.9171,1.9204,1.9235,1.9245,1.9261,1.9287,1.9305,1.933,1.9341,1.9358,1.9371,1.9392,1.9392,1.942,1.9414,1.9425,1.9435,1.9436,1.9439,1.944,1.9441,1.9446,1.9447,1.9441,1.9441,1.9441,0,1.914,1.9181,1.9206,1.9218,1.9256,1.9266,1.9282,1.9307,1.9321,1.9343,1.9353,1.9376,1.9389,1.9406,1.9424,1.9424,1.945,1.9452,1.9458,1.9458,1.9463,1.9463,1.947,1.947,1.947,1.947,1.947,0,1.9151,1.917,1.9203,1.9218,1.9239,1.9262,1.9282,1.9299,1.932,1.9337,1.9354,1.9369,1.9393,1.9411,1.9425,1.9445,1.9451,1.9459,1.9463,1.9458,1.9457,1.9465,1.9465,1.9471,1.9471,1.9471,1.947,0,1.9147,1.9171,1.9199,1.9232,1.924,1.9254,1.9282,1.9296,1.9313,1.9334,1.934,1.9366,1.9388,1.9408,1.9437,1.9446,1.9467,1.9471,1.9459,1.9461,1.9465,1.9465,1.9479,1.9481,1.948,1.948,1.948,0,1.9153,1.9168,1.9203,1.9216,1.9232,1.9253,1.9269,1.9291,1.9306,1.9334,1.9344,1.9368,1.9388,1.9421,1.9441,1.9463,1.9468,1.9472,1.9471,1.9466,1.9468,1.9467,1.9468,1.9471,1.9471,1.9471,1.9471,0,1.9159,1.917,1.9192,1.9218,1.9236,1.9257,1.9279,1.9288,1.9314,1.933,1.9353,1.9368,1.9398,1.942,1.9444,1.9458,1.9468,1.9471,1.9473,1.9468,1.9461,1.9465,1.9458,1.947,1.947,1.9471,1.9471,1.9471,1.916,1.9175,1.9201,1.9225,1.9243,1.9263,1.9278,1.9297,1.9317,1.9344,1.9355,1.9378,1.9401,1.9434,1.9448,1.9465,1.9467,1.9471,1.9472,1.9472,1.9471,1.9458,1.9469,1.947,1.947,1.947,1.947,0,1.9168,1.9186,1.9207,1.9237,1.9255,1.9265,1.9288,1.9303,1.9323,1.9344,1.9364,1.9389,1.9411,1.9433,1.9455,1.9464,1.947,1.9469,1.9469,1.9472,1.9468,1.9464,1.9465,1.9465,1.9465,1.9465,1.9465,1.9465,1.9174,1.9198,1.9211,1.9244,1.9261,1.9285,1.9298,1.9315,1.9332,1.9361,1.9379,1.9394,1.9414,1.9438,1.9458,1.9463,1.947,1.9469,1.9476,1.9472,1.9472,1.9472,1.9468,1.947,1.947,1.9478,1.9478,1.9478]}]]